Location: Street
(51.1247°N, 2.7429°W)
Time: 10:18:42
(UTC+01:00)

UWE-3 - Pass Details

Date: 05 April 2023
Orbit: 576 x 669 km, 97.7° (Epoch: 02 June)

Event Time Altitude Azimuth Distance (km) Brightness Sun altitude
Rises 03:46:27 0° 18° (NNE) 2,969 ? -24.2°
Reaches altitude 10° 03:48:48 10° 25° (NNE) 2,039 ? -24.0°
Maximum altitude 03:53:02 43° 98° (E) 882 ? -23.5°
Enters shadow 03:54:23 33° 142° (SE) 1,050 ? -23.4°
